This is the latest recevied weather packets stored in our database for station/object OK2JF-6. If no packets are shown the sender has not sent any weather packets the latest 10 day(s).
| Time | Temp. | Humidity | Pressure | Rain* | Wind** | Luminosity | Snow |
|---|---|---|---|---|---|---|---|
| 1776965958 | 12.78° C | 37% | 1089.1 hPa | 0 mm | - | 8 W/m² | - |
| 1776965583 | 12.78° C | 36% | 1089.2 hPa | 0 mm | - | 10 W/m² | - |
| 1776965223 | 13.33° C | 36% | 1088.9 hPa | 0 mm | - | 12 W/m² | - |
| 1776964997 | 13.33° C | 36% | 1089 hPa | 0 mm | - | 14 W/m² | - |
| 1776964323 | 13.33° C | 35% | 1089.1 hPa | 0 mm | - | 22 W/m² | - |
| 1776964263 | 13.33° C | 35% | 1089.1 hPa | 0 mm | - | 22 W/m² | - |
| 1776964203 | 13.33° C | 35% | 1089.1 hPa | 0 mm | - | 24 W/m² | - |
| 1776964143 | 13.33° C | 35% | 1089.1 hPa | 0 mm | - | 24 W/m² | - |
| 1776964083 | 13.33° C | 34% | 1089 hPa | 0 mm | - | 25 W/m² | - |
| 1776964023 | 13.33° C | 34% | 1088.9 hPa | 0 mm | - | 26 W/m² | - |
| 1776963483 | 13.89° C | 33% | 1088.7 hPa | 0 mm | - | 33 W/m² | - |
| 1776963377 | 13.89° C | 33% | 1088.8 hPa | 0 mm | - | 34 W/m² | - |
| 1776963363 | 13.89° C | 33% | 1088.8 hPa | 0 mm | - | 34 W/m² | - |
| 1776962703 | 13.89° C | 33% | 1088.9 hPa | 0 mm | - | 44 W/m² | - |
| 1776962523 | 13.89° C | 33% | 1088.5 hPa | 0 mm | - | 46 W/m² | - |
| 1776962284 | 13.89° C | 32% | 1089.2 hPa | 0 mm | - | 51 W/m² | - |
| 1776962118 | 14.44° C | 31% | 1088.9 hPa | 0 mm | - | 53 W/m² | - |
| 1776962103 | 14.44° C | 31% | 1088.9 hPa | 0 mm | - | 53 W/m² | - |
| 1776961863 | 14.44° C | 31% | 1089 hPa | 0 mm | - | 57 W/m² | - |
| 1776961623 | 14.44° C | 32% | 1088.9 hPa | 0 mm | - | 61 W/m² | - |
| 1776961503 | 14.44° C | 31% | 1089.2 hPa | 0 mm | - | 62 W/m² | - |
| 1776961337 | 14.44° C | 30% | 1088.9 hPa | 0 mm | - | 65 W/m² | - |
| 1776961323 | 14.44° C | 30% | 1089.3 hPa | 0 mm | - | 66 W/m² | - |
| 1776961098 | 14.44° C | 29% | 1089.1 hPa | 0 mm | - | 67 W/m² | - |
| 1776960903 | 14.44° C | 29% | 1089.3 hPa | 0 mm | - | 72 W/m² | - |
* Rain latest hour (hover to see other rain measurements)
** Current wind speed in m/s (hover to see current wind gust speed)